Вернуться в каталог

IRIDIUM 914

АктивенСвязьPO
NORAD 24836·PAYLOAD·🇺🇸 United States

Запущен Jun 18, 1997 с Baikonur Cosmodrome

Loading…

Ближайшие Пролёты (ближайшие 24 часа)

TLE

СвежийSource: Space-Track

Эпоха: Sep 14, 2026, 13:12 UTC

1 24836U 97030A   26257.55046742  .00000282  00000-0  81171-4 0  9991
2 24836  86.3993 350.1948 0003201 119.6652 240.4866 14.41285786672561

Отслеживайте IRIDIUM 914 в реальном времени с AllMySat

Download on the App Store